This is the latest recevied weather packets stored in our database for station/object KD4PMP. If no packets are shown the sender has not sent any weather packets the latest 10 day(s).
| Time | Temp. | Humidity | Pressure | Rain* | Wind** | Luminosity | Snow |
|---|---|---|---|---|---|---|---|
| 1788023250 | 32.22° C | 58% | 1018.5 hPa | 0 mm | - | - | - |
| 1788022643 | 32.22° C | 59% | 1018.6 hPa | 0 mm | - | - | - |
| 1788022037 | 32.22° C | 60% | 1018.7 hPa | 0 mm | - | - | - |
| 1788021430 | 31.67° C | 59% | 1018.8 hPa | 0 mm | - | - | - |
| 1788020824 | 31.67° C | 60% | 1018.8 hPa | 0 mm | - | - | - |
| 1788020218 | 31.67° C | 61% | 1018.7 hPa | 0 mm | - | - | - |
| 1788019611 | 31.67° C | 61% | 1018.7 hPa | 0 mm | - | - | - |
| 1788019005 | 31.67° C | 63% | 1018.8 hPa | 0 mm | - | - | - |
| 1788018399 | 31.11° C | 62% | 1018.9 hPa | 0 mm | - | - | - |
| 1788017792 | 30.56° C | 66% | 1018.9 hPa | 0 mm | - | - | - |
| 1788017186 | 30° C | 66% | 1018.9 hPa | 0 mm | - | - | - |
| 1788016580 | 30° C | 67% | 1018.9 hPa | 0 mm | - | - | - |
| 1788015973 | 29.44° C | 68% | 1018.8 hPa | 0 mm | - | - | - |
| 1788015367 | 28.33° C | 72% | 1019 hPa | 0 mm | - | - | - |
| 1788014761 | 28.33° C | 72% | 1019.1 hPa | 0 mm | - | - | - |
| 1788014155 | 28.33° C | 72% | 1019.1 hPa | 0 mm | - | - | - |
| 1788013548 | 27.22° C | 72% | 1019 hPa | 0 mm | - | - | - |
| 1788012942 | 26.11° C | 77% | 1019 hPa | 0 mm | - | - | - |
| 1788012335 | 25° C | 81% | 1018.9 hPa | 0 mm | - | - | - |
| 1788011728 | 24.44° C | 82% | 1019 hPa | 0 mm | - | - | - |
| 1788011122 | 23.89° C | 84% | 1019.2 hPa | 0 mm | - | - | - |
| 1788010516 | 23.33° C | 85% | 1019.1 hPa | 0 mm | - | - | - |
| 1788009909 | 22.22° C | 87% | 1019 hPa | 0 mm | - | - | - |
| 1788009303 | 21.67° C | 89% | 1018.8 hPa | 0 mm | - | - | - |
| 1788008696 | 21.11° C | 91% | 1018.8 hPa | 0 mm | - | - | - |
* Rain latest hour (hover to see other rain measurements)
** Current wind speed in m/s (hover to see current wind gust speed)